Location: Buisson
(44.2787°N, 4.9969°E)
Time: 08:05:01
(UTC+00:00)

Milstar 3 - Pass Details

Date: 18 April 2021
Orbit: 1089 x 5155 km, 28.3° (Epoch: 07 April)

Event Time Altitude Azimuth Distance (km) Brightness Sun altitude
Exits shadow 03:40:44 14° 227° (SW) 2,993 4.4 -12.5°
Maximum altitude 03:46:25 31° 173° (S) 2,588 4.5 -11.6°
Drops below altitude 10° 03:56:57 10° 117° (ESE) 5,116 6.7 -9.9°
Sets 04:02:47 0° 109° (ESE) 6,823 7.6 -9.0°
